Flight Track Log - Related Links

Times and Time Zones

All times are in EDT time to prevent confusion due to time zone crossing. See the EGF4039 flight status page for this flight to view local times or setup timezone preferences in your user account.

Time Position Orientation Groundspeed Altitude Reporting Facility
EDT Latitude Longitude Course Direction KTS MPH feet Rate Location/Type
Tue 05:38:36 PM 42.5314 -92.3506 90° East 176 203 2,700  Level Chicago Center
Tue 05:39:38 PM 42.5389 -92.2486 84° East 244 281 5,400 2,468 Climbing Chicago Center
Tue 05:40:40 PM 42.5364 -92.1558 92° East 246 283 7,800 2,081 Climbing Chicago Center
Tue 05:41:42 PM 42.5281 -92.0567 96° East 255 293 9,700 1,935 Climbing Chicago Center
Tue 05:42:00 PM 42.4916 -91.7740 97° East  Level FlightAware Approximate
Tue 05:42:44 PM 42.5175 -91.9458 97° East 286 329 11,800  Level Chicago Center
Tue 05:43:00 PM 42.4833 -91.6483 90° East  Level FlightAware Approximate
Tue 05:43:46 PM 42.5056 -91.8086 97° East 308 354 14,100  Level Chicago Center
Tue 05:44:48 PM 42.4953 -91.6889 97° East 325 374 15,900 1,694 Climbing Chicago Center
Tue 05:45:50 PM 42.4825 -91.5656 98° East 335 386 17,600 1,694 Climbing Chicago Center
Tue 05:46:52 PM 42.4717 -91.4353 96° East 351 404 19,400 1,839 Climbing Chicago Center
Tue 05:47:54 PM 42.4794 -91.2744 86° East 364 419 21,400 1,584 Climbing Chicago Center
Tue 05:48:57 PM 42.4861 -91.1331 86° East 378 435 22,700 768 Climbing Chicago Center
Tue 05:49:59 PM 42.4933 -90.9786 86° East 412 474 23,000 145 Climbing Chicago Center
Tue 05:51:01 PM 42.4994 -90.8092 87° East 453 521 23,000  Level Chicago Center
Tue 05:52:03 PM 42.5067 -90.6331 87° East 472 543 23,000  Level Chicago Center
Tue 05:53:05 PM 42.5147 -90.4178 87° East 480 552 23,000  Level Chicago Center
Tue 05:54:07 PM 42.5211 -90.2411 87° East 475 547 23,000  Level Chicago Center
Tue 05:55:09 PM 42.5275 -90.0642 87° East 475 547 23,000 -484 Level Chicago Center
Tue 05:56:11 PM 42.5331 -89.8672 88° East 462 532 22,000 -1,113 Descending Chicago Center
Tue 05:57:13 PM 42.5386 -89.7142 87° East 414 476 20,700 -1,403 Descending Chicago Center
Tue 05:58:15 PM 42.5439 -89.5542 87° East 422 486 19,100 -1,548 Descending Chicago Center
Tue 05:59:17 PM 42.5486 -89.3983 88° East 418 481 17,500 -1,728 Descending Chicago Center
Tue 06:00:20 PM 42.5542 -89.2236 87° East 401 461 15,500 -1,824 Descending Chicago Center
Tue 06:01:22 PM 42.5522 -89.0808 91° East 390 449 13,700 -1,645 Descending Chicago Center
Tue 06:02:24 PM 42.5117 -88.9444 112° Southeast 391 450 12,100 -1,403 Descending Chicago Center
Tue 06:03:26 PM 42.4703 -88.8153 113° Southeast 382 440 10,800 -1,016 Descending Chicago Center
Tue 06:04:28 PM 42.4314 -88.6861 112° Southeast 375 432 10,000 -387 Descending Chicago Center
Tue 06:05:30 PM 42.3867 -88.5389 112° Southeast 368 423 10,000  Level Chicago Center
Tue 06:06:32 PM 42.3494 -88.4142 112° Southeast 362 417 10,000 -97 Level Chicago Center
Tue 06:07:34 PM 42.2892 -88.2997 125° Southeast 352 405 9,800 -726 Descending Chicago Center
Tue 06:08:36 PM 42.2325 -88.2092 130° Southeast 326 375 8,500 -1,210 Descending Chicago Center
Tue 06:09:38 PM 42.1728 -88.1322 136° Southeast 305 351 7,300 -726 Descending Chicago Center
Tue 06:10:40 PM 42.0958 -88.0958 161° South 297 342 7,000 -145 Descending Chicago Center
Tue 06:11:42 PM 42.0208 -88.0603 161° South 289 333 7,000  Level Chicago Center
Tue 06:12:55 PM 41.9333 -87.9667 141° Southeast 298 343 7,000  Level Chicago TRACON
Tue 06:14:01 PM 41.8833 -87.8833 129° Southeast 273 314 7,000 -105 Level Chicago TRACON
Tue 06:14:49 PM 41.8886 -87.8108 84° East 245 282 6,800 -250 Descending Chicago Center

Login

Don't have an account? Register now (free) for customized features, flight alerts, and more!